INTELSAT 22 (IS-22)

Last updated on Sat Aug 15 2026 00:02:58 GMT+0000 (Coordinated Universal Time)

1 38098U 12011A 26226.58218279 -.00000074 00000+0 00000+0 0 9993 2 38098 0.0207 85.7964 0001897 68.5975 90.2848 1.00271884 7776
UTC large
Height (km)
Speed (km/s)
/
Latitude / Longitude
Inclination (degrees)
Orbital Period (minutes)
Azimuth
Elevation
Range (km)
Doppler Factor

Next 0 passes for location: London (51.5072 / 0.1276)

No passes found over London.
INTELSAT 22 (IS-22)